[[{"header":{"parameterUnit":"m.s-1","parameterCategory":1,"la1":30.2991,"la2":30.254,"lo1":-89.0895,"lo2":-89.0444,"dy":0.0017,"dx":0.0017,"nx":28,"ny":28,"refTime":"2024-04-20T21:00:00:Z","depth":0,"parameterNumber":2,"parameterNumberName":"U-component_of_WINDS"},"data":[0,0,0,0,0,0,0,0,0,0,0,0,0,0,0,0,0,0,0,0,0,0,0,0,0,0,0,0,0,0,0,0,0,0,0,0,0,0,0,0,0,0,0,0,0,0,0,0,0,0,0,0,0,0,0,0,0,0,-0.2833,-0.2833,0,-0.2783,-0.2783,-0.2782,-0.2781,-0.2782,-0.2782,-0.2783,-0.2732,-0.273,-0.2728,0,0,0,0,0,0,0,0,0,0,0,0,0,-0.2929,-0.2927,-0.2833,-0.2833,-0.2832,-0.2783,-0.2783,-0.2782,-0.2781,-0.2782,-0.2782,-0.2783,-0.2732,-0.273,-0.2728,0,0,0,0,0,0,0,0,0,0,0,0,0,-0.2884,-0.2926,-0.2833,-0.2825,-0.2824,-0.2783,-0.2783,-0.2782,-0.2781,-0.2782,-0.2783,-0.2783,-0.2733,-0.273,-0.2728,-0.2691,0,0,-0.2719,-0.2717,0,0,0,0,0,0,0,0,-0.2886,-0.288,-0.2827,-0.2826,-0.2825,-0.2789,-0.2798,-0.2751,-0.278,-0.2797,-0.2783,-0.2784,-0.275,-0.2746,-0.2735,-0.2689,-0.2687,-0.2718,-0.2717,-0.2715,-0.2715,0,0,0,0,0,0,0,-0.289,-0.2883,-0.2813,-0.2826,-0.2825,-0.2825,-0.282,-0.2789,-0.2769,-0.2796,-0.2796,-0.279,-0.275,-0.2737,-0.2733,-0.2686,-0.2719,-0.2716,-0.2714,-0.2713,-0.2609,-0.2608,0,0,0,0,0,0,-0.2894,-0.2885,-0.2815,-0.2812,-0.2858,-0.2822,-0.2816,-0.28,-0.2769,-0.2766,-0.2789,-0.279,-0.2742,-0.2737,-0.2732,-0.2687,-0.2715,-0.2713,-0.2711,-0.261,-0.2609,-0.2608,0,0,0,0,0,0,-0.2896,-0.2888,-0.2817,-0.2848,-0.2839,-0.282,-0.2801,-0.2798,-0.2786,-0.2764,-0.2761,-0.278,-0.2742,-0.2736,-0.2701,-0.2686,-0.2711,-0.2709,-0.2611,-0.261,-0.2608,-0.2599,0,0,0,0,0,0,-0.2899,-0.2889,-0.2874,-0.2848,-0.2838,-0.2787,-0.28,-0.2797,-0.2781,-0.2782,-0.2755,-0.2751,-0.2743,-0.2706,-0.2699,-0.2682,-0.2707,-0.2612,-0.261,-0.2609,-0.26,-0.2597,-0.2594,0,0,0,0,0,-0.2902,-0.2873,-0.2873,-0.2865,-0.2819,-0.2786,-0.278,-0.2771,-0.278,-0.2765,-0.2752,-0.2752,-0.2689,-0.2702,-0.2694,-0.2677,-0.2613,-0.2611,-0.2609,-0.2602,-0.2597,-0.2594,0,0,0,0,0,0,-0.2898,-0.287,-0.2869,-0.2831,-0.2811,-0.2786,-0.2767,-0.2767,-0.2744,-0.2745,-0.2735,-0.2729,-0.2695,-0.2682,-0.2698,-0.264,-0.2652,-0.2648,-0.2649,-0.2645,-0.2642,-0.2646,-0.2704,0,0,0,0,0,-0.2892,-0.2867,-0.2844,-0.2813,-0.2803,-0.2787,-0.2772,-0.2767,-0.2746,-0.2737,-0.2721,-0.2701,-0.2676,-0.266,-0.2637,-0.2599,-0.2593,-0.2583,-0.258,-0.2577,-0.2574,-0.2554,-0.2549,-0.26,-0.26,-0.26,0,0,-0.288,-0.2862,-0.2847,-0.2811,-0.2795,-0.277,-0.278,-0.2753,-0.2734,-0.2733,-0.27,-0.2687,-0.2664,-0.2628,-0.2612,-0.2617,-0.2559,-0.2574,-0.2573,-0.257,-0.2551,-0.2546,-0.2542,-0.2598,-0.2599,-0.2599,0,0,-0.2846,-0.283,-0.2802,-0.2786,-0.2762,-0.2751,-0.2745,-0.272,-0.2712,-0.2679,-0.2677,-0.2656,-0.2614,-0.2597,-0.2584,-0.2545,-0.2545,-0.2538,-0.2521,-0.2502,-0.2498,-0.2494,-0.2481,-0.2476,-0.2535,-0.2535,-0.2535,0,-0.2835,-0.2797,-0.2788,-0.2761,-0.2746,-0.2744,-0.2716,-0.2701,-0.267,-0.266,-0.2666,-0.2614,-0.2598,-0.2559,-0.255,-0.2539,-0.2531,-0.254,-0.2499,-0.2496,-0.2492,-0.2479,-0.2474,-0.2534,-0.2534,-0.2534,-0.2534,0,-0.2784,-0.2758,-0.2739,-0.2709,-0.2692,-0.2664,-0.2652,-0.2635,-0.2632,-0.2621,-0.2588,-0.2569,-0.2542,-0.2533,-0.2529,-0.2493,-0.2497,-0.2502,-0.2513,-0.2487,-0.2474,-0.2469,-0.2533,-0.2533,-0.2533,-0.2533,0,0,-0.2744,-0.2711,-0.2704,-0.2691,-0.2665,-0.2645,-0.2618,-0.2591,-0.2578,-0.2557,-0.2535,-0.25,-0.2505,-0.2489,-0.2484,-0.2467,-0.2438,-0.2473,-0.2473,-0.2467,-0.2398,-0.2395,-0.2389,-0.2438,-0.2437,-0.2437,-0.24,0,-0.2707,-0.2659,-0.2651,-0.2609,-0.2585,-0.2584,-0.2561,-0.2543,-0.2532,-0.2511,-0.25,-0.2476,-0.2483,-0.2474,-0.2457,-0.2445,-0.2424,-0.2448,-0.2418,-0.2417,-0.2423,-0.2382,-0.2378,-0.2345,-0.2395,-0.2394,-0.2394,0,-0.2657,-0.2636,-0.2591,-0.2569,-0.2559,-0.2538,-0.2514,-0.2493,-0.2473,-0.2467,-0.245,-0.2447,-0.242,-0.2434,-0.2397,-0.2413,-0.2401,-0.2393,-0.2392,-0.2388,-0.2403,-0.2378,-0.2334,-0.2329,-0.2386,-0.2387,-0.2387,0,-0.2633,-0.2593,-0.2561,-0.255,-0.2523,-0.2509,-0.2497,-0.2478,-0.2463,-0.2442,-0.2432,-0.2409,-0.2396,-0.2378,-0.2369,-0.2379,-0.2333,-0.2345,-0.2327,-0.2327,-0.2317,-0.2317,-0.227,-0.2309,-0.2309,-0.2309,-0.231,0,-0.2592,-0.2565,-0.255,-0.253,-0.2501,-0.2492,-0.2463,-0.2451,-0.2435,-0.2413,-0.2411,-0.2392,-0.2381,-0.236,-0.2353,-0.2324,-0.2318,-0.2313,-0.2311,-0.2313,-0.2313,-0.2304,-0.2306,-0.2308,-0.2308,-0.2309,-0.2309,0,-0.256,-0.2548,-0.2514,-0.2492,-0.2486,-0.2465,-0.2446,-0.2427,-0.2418,-0.2391,-0.2385,-0.237,-0.2345,-0.2335,-0.2304,-0.23,-0.2267,-0.2267,-0.2273,-0.2273,-0.2255,-0.2257,-0.22,-0.2192,-0.2237,-0.2236,-0.2236,0,-0.2534,-0.2513,-0.2489,-0.2475,-0.2463,-0.244,-0.2425,-0.2416,-0.24,-0.2376,-0.2361,-0.2336,-0.2316,-0.2277,-0.2264,-0.2241,-0.2241,-0.2222,-0.2237,-0.224,-0.2241,-0.2242,-0.224,-0.2219,-0.2219,-0.2219,-0.2218,0,-0.2491,-0.2486,-0.2464,-0.244,-0.2423,-0.2404,-0.2385,-0.2374,-0.2362,-0.2345,-0.232,-0.2304,-0.2274,-0.2249,-0.2226,-0.2215,-0.2215,-0.2214,-0.2209,-0.221,-0.2214,-0.2212,-0.2266,-0.2215,-0.2215,-0.2216,-0.2216,-0.2216,-0.2461,-0.2442,-0.2423,-0.2399,-0.2384,-0.2367,-0.2349,-0.2337,-0.2316,-0.229,-0.2287,-0.226,-0.2242,-0.221,-0.2198,-0.2178,-0.2182,-0.2175,-0.2173,-0.2171,-0.217,-0.2218,-0.2174,-0.2174,-0.2174,-0.2174,-0.2174,0,-0.2417,-0.2405,-0.2383,-0.2357,-0.2338,-0.234,-0.232,-0.2304,-0.2281,-0.2263,-0.2244,-0.2216,-0.2192,-0.2178,-0.2155,-0.2142,-0.2141,-0.2136,-0.2137,-0.2134,-0.2167,-0.2174,-0.2137,-0.2137,-0.2137,-0.2137,-0.2137,-0.2137,-0.2392,-0.2361,-0.2355,-0.2318,-0.2305,-0.2279,-0.2267,-0.2252,-0.2238,-0.2207,-0.2187,-0.2178,-0.2162,-0.2139,-0.2118,-0.2114,-0.2106,-0.21,-0.2097,-0.2128,-0.2132,-0.2135,-0.2142,-0.2099,-0.2099,-0.2066,-0.2066,-0.2066]},{"header":{"parameterUnit":"m.s-1","parameterCategory":1,"la1":30.2991,"la2":30.254,"lo1":-89.0895,"lo2":-89.0444,"dy":0.0017,"dx":0.0017,"nx":28,"ny":28,"refTime":"2024-04-20T21:00:00:Z","depth":0,"parameterNumber":3,"parameterNumberName":"V-component_of_WINDS"},"data":[0,0,0,0,0,0,0,0,0,0,0,0,0,0,0,0,0,0,0,0,0,0,0,0,0,0,0,0,0,0,0,0,0,0,0,0,0,0,0,0,0,0,0,0,0,0,0,0,0,0,0,0,0,0,0,0,0,0,2.8006,2.8007,0,2.8024,2.8024,2.8024,2.8013,2.8012,2.8012,2.8011,2.8027,2.8028,2.8029,0,0,0,0,0,0,0,0,0,0,0,0,0,2.796,2.7961,2.8006,2.8007,2.8007,2.8024,2.8024,2.8025,2.8013,2.8012,2.8012,2.8011,2.8027,2.8028,2.8029,0,0,0,0,0,0,0,0,0,0,0,0,0,2.7979,2.7962,2.8006,2.8003,2.8003,2.8024,2.8024,2.8025,2.8013,2.8012,2.8011,2.8011,2.8027,2.8028,2.8029,2.8054,0,0,2.8034,2.8034,0,0,0,0,0,0,0,0,2.7978,2.7981,2.8003,2.8003,2.8003,2.8015,2.8014,2.8034,2.8013,2.8009,2.8011,2.801,2.8024,2.8025,2.803,2.8055,2.8055,2.8034,2.8035,2.8035,2.8036,0,0,0,0,0,0,0,2.7977,2.798,2.8013,2.8004,2.8004,2.8,2.8002,2.8018,2.8021,2.8009,2.8009,2.8011,2.8024,2.8029,2.8031,2.8056,2.8034,2.8035,2.8036,2.8036,2.81,2.8101,0,0,0,0,0,0,2.7976,2.7979,2.8013,2.8014,2.7989,2.8002,2.8004,2.8012,2.8021,2.8021,2.8012,2.801,2.8027,2.8029,2.8031,2.806,2.8035,2.8037,2.8037,2.8099,2.81,2.8101,0,0,0,0,0,0,2.7975,2.7979,2.8012,2.7996,2.8,2.8003,2.8013,2.8013,2.8019,2.8022,2.8022,2.8017,2.8027,2.8029,2.8048,2.8061,2.8037,2.8038,2.8098,2.81,2.8101,2.8118,0,0,0,0,0,0,2.7974,2.7979,2.7989,2.7997,2.8001,2.803,2.8014,2.8014,2.8021,2.802,2.8027,2.8028,2.8026,2.8046,2.805,2.8062,2.8039,2.8097,2.8099,2.81,2.8117,2.812,2.8123,0,0,0,0,0,2.7972,2.7993,2.799,2.7994,2.8014,2.803,2.8033,2.8031,2.8022,2.8032,2.8034,2.8027,2.8059,2.8048,2.8052,2.8065,2.8096,2.8098,2.81,2.8115,2.8119,2.8123,0,0,0,0,0,0,2.7986,2.7994,2.799,2.8014,2.8022,2.8028,2.804,2.8036,2.8046,2.8044,2.8041,2.8043,2.8063,2.8066,2.8054,2.8089,2.8076,2.8079,2.8086,2.809,2.8093,2.8092,2.8041,0,0,0,0,0,2.7992,2.8005,2.8011,2.8032,2.8036,2.8037,2.8045,2.8043,2.805,2.8053,2.8057,2.8064,2.8075,2.8083,2.8094,2.8117,2.8118,2.8128,2.8131,2.8133,2.8136,2.8148,2.8152,2.8108,2.8108,2.8107,0,0,2.8004,2.801,2.8018,2.8034,2.804,2.8054,2.804,2.8055,2.8065,2.8055,2.8074,2.8077,2.8084,2.8105,2.8115,2.8109,2.8148,2.8136,2.8138,2.8139,2.815,2.8155,2.8158,2.8109,2.8109,2.8108,0,0,2.8033,2.8039,2.8056,2.8062,2.8071,2.8072,2.8077,2.8084,2.8086,2.8104,2.8097,2.8108,2.8128,2.8134,2.8139,2.817,2.8164,2.8173,2.819,2.8202,2.8205,2.8208,2.8219,2.8223,2.8176,2.8176,2.8176,0,2.8046,2.8067,2.8066,2.8081,2.8088,2.8081,2.8098,2.8104,2.8115,2.812,2.8113,2.8137,2.8142,2.8164,2.8172,2.8177,2.8181,2.8172,2.8205,2.8208,2.8211,2.8221,2.8225,2.8177,2.8177,2.8177,2.8176,0,2.8083,2.8097,2.811,2.8123,2.8131,2.8147,2.8148,2.8156,2.8153,2.8155,2.8173,2.8179,2.819,2.8195,2.8193,2.8217,2.8213,2.8205,2.8192,2.8216,2.8226,2.823,2.8178,2.8178,2.8178,2.8177,0,0,2.8121,2.8132,2.8137,2.8142,2.8152,2.8162,2.8178,2.819,2.8197,2.8205,2.8218,2.8234,2.8228,2.8234,2.8232,2.8242,2.8266,2.8233,2.8233,2.8239,2.8292,2.8298,2.8303,2.8262,2.8262,2.8263,2.8292,0,2.815,2.8178,2.8177,2.8203,2.8216,2.8209,2.8223,2.8229,2.8231,2.8241,2.8243,2.8255,2.8245,2.8249,2.8259,2.8261,2.8276,2.8259,2.8273,2.8273,2.8271,2.8308,2.8314,2.8341,2.8295,2.8296,2.8297,0,2.8188,2.8199,2.8226,2.8233,2.8238,2.825,2.8261,2.8271,2.8278,2.8279,2.8286,2.8282,2.8297,2.8283,2.8304,2.8292,2.8297,2.8299,2.83,2.8301,2.8286,2.831,2.8349,2.8353,2.8302,2.8302,2.8302,0,2.8213,2.8234,2.8252,2.8257,2.8266,2.8275,2.8279,2.8285,2.8292,2.8301,2.8305,2.8316,2.8321,2.8329,2.8328,2.8318,2.8348,2.8335,2.8349,2.8349,2.8355,2.8355,2.8396,2.8359,2.8359,2.8359,2.8359,0,2.8246,2.8263,2.8264,2.8275,2.8294,2.8292,2.831,2.8313,2.8319,2.833,2.8324,2.8335,2.8333,2.8343,2.8342,2.8359,2.8362,2.8362,2.8362,2.8363,2.8363,2.8366,2.8364,2.836,2.836,2.836,2.8359,0,2.8277,2.8279,2.8299,2.8305,2.8307,2.8321,2.8326,2.8336,2.8337,2.8352,2.8355,2.8357,2.8369,2.8368,2.8382,2.8381,2.8402,2.8399,2.84,2.8399,2.8413,2.8412,2.8458,2.8464,2.8423,2.8423,2.8424,0,2.8298,2.8311,2.8319,2.8327,2.8332,2.8344,2.8351,2.8349,2.8357,2.8366,2.8375,2.8387,2.8396,2.8416,2.8417,2.8428,2.8425,2.8441,2.8427,2.8427,2.8425,2.8425,2.8426,2.8443,2.8444,2.8444,2.8445,0,2.8335,2.8335,2.8346,2.8358,2.8366,2.8375,2.8383,2.8389,2.8388,2.8397,2.841,2.8417,2.8431,2.8442,2.8452,2.8455,2.845,2.8449,2.8453,2.8454,2.8454,2.8454,2.8407,2.8448,2.8448,2.8447,2.8447,2.8447,2.8362,2.8373,2.8381,2.8393,2.8399,2.8406,2.8416,2.8419,2.8429,2.8441,2.8439,2.8453,2.8459,2.8472,2.8476,2.8486,2.848,2.8486,2.8487,2.8489,2.849,2.8452,2.8488,2.8488,2.8488,2.8487,2.8487,0,2.8399,2.8403,2.8415,2.8426,2.8435,2.843,2.8438,2.8446,2.8459,2.8465,2.8475,2.8489,2.85,2.8502,2.8513,2.852,2.8518,2.8523,2.8523,2.8523,2.8495,2.849,2.8525,2.8525,2.8525,2.8525,2.8525,2.8525,2.8419,2.8438,2.8438,2.8459,2.8463,2.8477,2.8482,2.8489,2.8494,2.851,2.8519,2.8521,2.8526,2.8536,2.8546,2.8546,2.855,2.8556,2.8556,2.8529,2.8525,2.8522,2.8518,2.8557,2.8557,2.8584,2.8584,2.8584]}]]